Total_Precipitation_Accumulation
0.07 0.06 0.06 0.05 0.04 0.04 0.04 0.04 0.06 0.07 0.06 0.05 0.06 0.06 0.10 0.20 0.33 0.58 0.87 0.52 0.45 0.48 0.12 0.01 0.01 0.00 0.01 0.03 0.06 0.04 0.12 0.08 0.08 0.10 0.04 0.02 0.01 0.00 0.00 0.00 0.04 0.17 0.38 0.33 0.33 0.21 0.06 0.06 0.11 0.19 0.16 0.07 0.01 0.00
0.06 0.06 0.05 0.04 0.04 0.04 0.04 0.04 0.04 0.04 0.04 0.04 0.06 0.07 0.04 0.07 0.17 0.59 1.03 0.91 0.36 0.48 0.35 0.05 0.01 0.00 0.00 0.00 0.05 0.10 0.05 0.02 0.01 0.01 0.00 0.00 0.00 0.00 0.00 0.00 0.00 0.02 0.07 0.14 0.21 0.19 0.08 0.03 0.06 0.12 0.08 0.08 0.04 0.02
0.04 0.03 0.04 0.04 0.03 0.03 0.03 0.04 0.04 0.04 0.06 0.05 0.05 0.09 0.10 0.06 0.08 0.34 1.06 0.72 0.84 1.02 0.62 0.07 0.04 0.00 0.00 0.00 0.01 0.01 0.01 0.03 0.06 0.02 0.03 0.03 0.01 0.00 0.00 0.00 0.00 0.00 0.02 0.03 0.02 0.00 0.01 0.02 0.01 0.00 0.01 0.01 0.01 0.00
0.03 0.06 0.06 0.04 0.04 0.05 0.04 0.03 0.03 0.04 0.06 0.06 0.06 0.07 0.12 0.12 0.11 0.20 0.57 0.76 0.75 1.07 0.57 0.15 0.00 0.00 0.00 0.00 0.01 0.00 0.00 0.04 0.08 0.12 0.09 0.10 0.06 0.02 0.00 0.00 0.00 0.00 0.01 0.02 0.01 0.00 0.00 0.00 0.00 0.01 0.00 0.00 0.00 0.01
0.15 0.16 0.10 0.08 0.09 0.09 0.09 0.08 0.06 0.05 0.08 0.09 0.09 0.09 0.13 0.23 0.21 0.23 0.12 0.37 0.74 0.43 0.35 0.05 0.00 0.00 0.00 0.00 0.02 0.04 0.04 0.07 0.07 0.13 0.15 0.09 0.06 0.06 0.03 0.01 0.00 0.00 0.00 0.00 0.00 0.00 0.00 0.00 0.00 0.00 0.00 0.00 0.00 0.00
0.19 0.06 0.04 0.07 0.08 0.09 0.08 0.11 0.12 0.15 0.13 0.12 0.15 0.17 0.20 0.36 0.54 0.69 0.64 0.39 0.53 0.37 0.40 0.21 0.04 0.00 0.01 0.01 0.04 0.04 0.05 0.09 0.11 0.11 0.12 0.08 0.04 0.07 0.05 0.02 0.00 0.00 0.00 0.00 0.00 0.00 0.00 0.00 0.00 0.00 0.00 0.00 0.00 0.00
0.02 0.04 0.08 0.08 0.03 0.03 0.03 0.06 0.10 0.12 0.15 0.16 0.20 0.22 0.27 0.60 0.93 0.85 0.37 0.16 0.24 0.43 0.61 0.28 0.07 0.02 0.07 0.05 0.04 0.05 0.08 0.12 0.16 0.20 0.12 0.04 0.04 0.09 0.07 0.03 0.00 0.00 0.00 0.00 0.00 0.00 0.00 0.00 0.01 0.01 0.01 0.01 0.01 0.02
0.02 0.05 0.04 0.02 0.01 0.02 0.02 0.08 0.15 0.19 0.17 0.15 0.22 0.25 0.37 0.69 0.81 0.38 0.04 0.01 0.17 0.41 0.49 0.40 0.17 0.05 0.07 0.13 0.08 0.05 0.08 0.16 0.31 0.19 0.08 0.02 0.03 0.08 0.14 0.02 0.00 0.00 0.01 0.00 0.00 0.01 0.00 0.00 0.01 0.01 0.01 0.01 0.04 0.02
0.02 0.05 0.08 0.05 0.04 0.04 0.06 0.10 0.14 0.21 0.29 0.38 0.47 0.58 0.85 1.23 1.17 0.36 0.08 0.13 0.14 0.26 0.22 0.23 0.19 0.11 0.07 0.09 0.10 0.07 0.15 0.30 0.17 0.11 0.07 0.05 0.02 0.07 0.06 0.07 0.07 0.01 0.00 0.00 0.00 0.01 0.02 0.03 0.03 0.02 0.02 0.02 0.02 0.02
0.09 0.11 0.19 0.24 0.21 0.16 0.17 0.27 0.44 0.62 0.70 0.65 0.74 1.15 1.64 1.10 0.38 0.37 0.60 0.66 0.43 0.27 0.09 0.06 0.07 0.11 0.07 0.06 0.09 0.21 0.13 0.19 0.14 0.03 0.01 0.02 0.01 0.04 0.06 0.04 0.04 0.01 0.00 0.00 0.00 0.00 0.00 0.01 0.02 0.02 0.01 0.00 0.01 0.01
0.12 0.18 0.23 0.25 0.26 0.33 0.44 0.51 0.53 0.55 0.44 0.38 0.59 1.05 1.11 0.44 0.27 0.45 0.57 0.48 0.37 0.17 0.06 0.03 0.02 0.05 0.07 0.03 0.04 0.11 0.16 0.07 0.05 0.01 0.01 0.01 0.01 0.01 0.09 0.11 0.05 0.04 0.02 0.01 0.00 0.00 0.00 0.00 0.00 0.00 0.00 0.00 0.00 0.00
0.08 0.11 0.15 0.17 0.18 0.18 0.14 0.09 0.10 0.08 0.07 0.10 0.35 0.47 0.41 0.46 0.36 0.33 0.20 0.22 0.12 0.04 0.03 0.02 0.00 0.03 0.03 0.07 0.07 0.17 0.15 0.08 0.02 0.00 0.04 0.01 0.12 0.12 0.05 0.09 0.06 0.06 0.06 0.04 0.02 0.01 0.01 0.01 0.01 0.00 0.00 0.00 0.00 0.00
0.03 0.02 0.02 0.02 0.04 0.05 0.06 0.06 0.02 0.02 0.02 0.02 0.06 0.14 0.26 0.19 0.10 0.11 0.05 0.06 0.08 0.04 0.01 0.01 0.00 0.00 0.00 0.03 0.09 0.22 0.18 0.03 0.04 0.09 0.08 0.08 0.05 0.13 0.09 0.10 0.14 0.06 0.06 0.07 0.02 0.01 0.00 0.00 0.00 0.01 0.01 0.01 0.01 0.02
0.01 0.00 0.01 0.02 0.02 0.02 0.02 0.02 0.03 0.03 0.02 0.02 0.01 0.03 0.04 0.02 0.05 0.07 0.07 0.05 0.03 0.02 0.00 0.00 0.00 0.00 0.01 0.02 0.07 0.14 0.17 0.20 0.16 0.11 0.07 0.05 0.04 0.05 0.08 0.09 0.16 0.19 0.13 0.18 0.26 0.12 0.06 0.03 0.04 0.07 0.09 0.08 0.06 0.10
0.00 0.00 0.00 0.00 0.00 0.01 0.04 0.04 0.03 0.01 0.00 0.00 0.00 0.02 0.05 0.13 0.11 0.12 0.08 0.06 0.04 0.02 0.01 0.01 0.02 0.02 0.08 0.18 0.18 0.24 0.26 0.27 0.19 0.08 0.08 0.07 0.05 0.05 0.08 0.10 0.12 0.19 0.24 0.22 0.35 0.50 0.44 0.33 0.24 0.31 0.32 0.28 0.19 0.21
0.00 0.00 0.00 0.00 0.00 0.00 0.00 0.00 0.00 0.00 0.00 0.00 0.02 0.05 0.07 0.11 0.09 0.08 0.10 0.12 0.08 0.06 0.07 0.16 0.09 0.14 0.22 0.21 0.20 0.21 0.14 0.08 0.10 0.10 0.09 0.09 0.10 0.09 0.11 0.13 0.17 0.21 0.23 0.28 0.31 0.38 0.52 0.62 0.62 0.58 0.59 0.51 0.45 0.33
0.00 0.00 0.00 0.00 0.00 0.00 0.00 0.00 0.00 0.00 0.00 0.01 0.04 0.06 0.07 0.06 0.08 0.09 0.17 0.19 0.13 0.10 0.13 0.16 0.11 0.09 0.11 0.06 0.07 0.09 0.09 0.10 0.13 0.14 0.13 0.13 0.15 0.18 0.16 0.17 0.19 0.20 0.24 0.28 0.34 0.36 0.39 0.45 0.45 0.42 0.52 0.58 0.41 0.31
0.00 0.00 0.00 0.00 0.00 0.00 0.00 0.00 0.00 0.00 0.01 0.05 0.05 0.10 0.05 0.05 0.06 0.08 0.15 0.23 0.21 0.09 0.06 0.08 0.03 0.02 0.08 0.08 0.09 0.17 0.16 0.15 0.14 0.18 0.20 0.20 0.18 0.21 0.22 0.22 0.25 0.23 0.26 0.30 0.31 0.35 0.34 0.32 0.28 0.31 0.28 0.28 0.20 0.20
0.00 0.00 0.00 0.00 0.00 0.00 0.00 0.00 0.00 0.00 0.03 0.03 0.04 0.04 0.02 0.05 0.08 0.11 0.17 0.25 0.13 0.06 0.07 0.08 0.05 0.05 0.08 0.12 0.13 0.17 0.15 0.13 0.15 0.18 0.21 0.27 0.27 0.25 0.27 0.27 0.26 0.28 0.27 0.29 0.24 0.23 0.29 0.27 0.22 0.20 0.18 0.17 0.12 0.13
0.00 0.00 0.00 0.00 0.00 0.00 0.00 0.00 0.00 0.00 0.01 0.02 0.01 0.00 0.01 0.04 0.05 0.04 0.06 0.08 0.07 0.03 0.03 0.04 0.08 0.10 0.12 0.12 0.14 0.15 0.14 0.13 0.10 0.11 0.16 0.24 0.34 0.31 0.32 0.28 0.30 0.30 0.26 0.27 0.27 0.24 0.19 0.18 0.18 0.15 0.12 0.10 0.05 0.04
0.00 0.00 0.00 0.00 0.00 0.00 0.01 0.01 0.00 0.01 0.03 0.03 0.03 0.02 0.01 0.00 0.01 0.01 0.02 0.01 0.02 0.06 0.08 0.09 0.10 0.13 0.17 0.18 0.15 0.08 0.09 0.07 0.09 0.08 0.12 0.19 0.28 0.26 0.29 0.32 0.28 0.29 0.23 0.24 0.19 0.22 0.17 0.13 0.13 0.08 0.04 0.02 0.01 0.01
0.00 0.00 0.00 0.00 0.00 0.00 0.06 0.05 0.01 0.02 0.01 0.04 0.04 0.01 0.00 0.00 0.00 0.00 0.00 0.01 0.05 0.11 0.12 0.12 0.11 0.11 0.11 0.12 0.14 0.13 0.14 0.10 0.13 0.16 0.19 0.21 0.22 0.25 0.27 0.29 0.25 0.22 0.20 0.20 0.16 0.13 0.11 0.06 0.02 0.00 0.00 0.00 0.00 0.00
0.00 0.00 0.00 0.00 0.00 0.00 0.08 0.09 0.06 0.11 0.09 0.08 0.05 0.03 0.02 0.02 0.01 0.00 0.01 0.04 0.11 0.15 0.11 0.10 0.10 0.10 0.10 0.14 0.11 0.12 0.16 0.13 0.16 0.21 0.25 0.27 0.28 0.28 0.25 0.24 0.23 0.18 0.13 0.14 0.09 0.05 0.02 0.00 0.00 0.00 0.00 0.00 0.00 0.00
0.00 0.00 0.00 0.00 0.00 0.00 0.00 0.00 0.00 0.00 0.00 0.01 0.02 0.04 0.05 0.02 0.01 0.00 0.03 0.09 0.13 0.10 0.08 0.09 0.08 0.08 0.08 0.07 0.10 0.13 0.17 0.14 0.13 0.16 0.21 0.20 0.19 0.23 0.20 0.15 0.11 0.08 0.05 0.03 0.01 0.00 0.00 0.00 0.00 0.00 0.00 0.00 0.00 0.00
0.00 0.00 0.00 0.00 0.00 0.00 0.00 0.00 0.00 0.00 0.00 0.00 0.00 0.02 0.02 0.00 0.00 0.00 0.01 0.04 0.04 0.04 0.04 0.04 0.04 0.05 0.06 0.09 0.11 0.13 0.16 0.15 0.14 0.12 0.21 0.20 0.19 0.16 0.12 0.09 0.05 0.02 0.00 0.00 0.00 0.00 0.00 0.00 0.00 0.00 0.00 0.00 0.00 0.00
0.00 0.00 0.00 0.01 0.00 0.00 0.00 0.00 0.00 0.00 0.00 0.01 0.01 0.01 0.00 0.00 0.00 0.01 0.03 0.04 0.04 0.04 0.04 0.03 0.03 0.03 0.04 0.06 0.07 0.08 0.12 0.15 0.13 0.11 0.16 0.14 0.11 0.09 0.07 0.05 0.03 0.02 0.00 0.00 0.00 0.00 0.00 0.00 0.00 0.00 0.00 0.00 0.00 0.00
0.00 0.00 0.00 0.00 0.01 0.00 0.00 0.00 0.00 0.00 0.00 0.01 0.00 0.00 0.00 0.00 0.01 0.02 0.03 0.03 0.03 0.06 0.05 0.04 0.03 0.03 0.04 0.05 0.06 0.07 0.08 0.07 0.06 0.07 0.08 0.06 0.04 0.03 0.02 0.01 0.01 0.01 0.00 0.00 0.00 0.00 0.00 0.00 0.00 0.00 0.00 0.00 0.00 0.00
0.00 0.00 0.00 0.00 0.00 0.00 0.00 0.00 0.00 0.01 0.01 0.01 0.00 0.00 0.00 0.01 0.02 0.03 0.03 0.04 0.03 0.03 0.03 0.04 0.04 0.04 0.04 0.04 0.03 0.02 0.01 0.01 0.01 0.00 0.00 0.00 0.00 0.00 0.00 0.00 0.00 0.00 0.00 0.00 0.00 0.00 0.00 0.00 0.00 0.00 0.00 0.00 0.00 0.00
0.00 0.00 0.00 0.00 0.00 0.00 0.01 0.01 0.01 0.01 0.01 0.01 0.00 0.01 0.02 0.05 0.05 0.02 0.03 0.03 0.02 0.02 0.02 0.03 0.04 0.03 0.03 0.03 0.02 0.00 0.00 0.00 0.00 0.00 0.00 0.00 0.00 0.00 0.00 0.00 0.00 0.00 0.00 0.00 0.00 0.00 0.00 0.00 0.00 0.00 0.00 0.00 0.00 0.00
0.00 0.00 0.00 0.00 0.01 0.01 0.02 0.01 0.01 0.00 0.00 0.00 0.01 0.01 0.02 0.05 0.10 0.06 0.04 0.03 0.02 0.02 0.03 0.02 0.02 0.00 0.00 0.00 0.00 0.00 0.00 0.00 0.00 0.00 0.00 0.00 0.00 0.00 0.00 0.00 0.00 0.00 0.00 0.00 0.00 0.00 0.00 0.00 0.00 0.00 0.00 0.00 0.00 0.00
0.00 0.00 0.00 0.00 0.01 0.01 0.00 0.00 0.00 0.00 0.00 0.00 0.00 0.00 0.01 0.04 0.04 0.04 0.03 0.03 0.02 0.01 0.01 0.01 0.02 0.01 0.00 0.00 0.00 0.00 0.00 0.00 0.00 0.00 0.00 0.00 0.00 0.00 0.00 0.00 0.00 0.00 0.00 0.00 0.00 0.00 0.00 0.00 0.00 0.00 0.00 0.00 0.00 0.00
0.00 0.00 0.00 0.00 0.01 0.01 0.02 0.02 0.01 0.00 0.00 0.00 0.00 0.00 0.01 0.00 0.00 0.01 0.02 0.03 0.03 0.02 0.01 0.01 0.01 0.01 0.00 0.00 0.00 0.00 0.00 0.00 0.00 0.00 0.00 0.00 0.00 0.00 0.00 0.00 0.00 0.00 0.00 0.00 0.00 0.00 0.00 0.00 0.00 0.00 0.00 0.00 0.00 0.00
0.00 0.00 0.00 0.00 0.00 0.01 0.01 0.02 0.00 0.00 0.01 0.01 0.01 0.01 0.01 0.01 0.00 0.01 0.02 0.03 0.02 0.00 0.00 0.00 0.00 0.00 0.00 0.00 0.00 0.00 0.00 0.00 0.00 0.00 0.00 0.00 0.00 0.00 0.00 0.00 0.00 0.00 0.00 0.00 0.00 0.00 0.00 0.00 0.00 0.00 0.00 0.00 0.00 0.00